Location: Gwatt
(46.7204°N, 7.6223°E)
Time: 23:13:35
(UTC+00:00)

Courier 1B Rocket - Pass Details

Date: 24 January 2021
Orbit: 920 x 1202 km, 28.3° (Epoch: 25 February)

Event Time Altitude Azimuth Distance (km) Brightness Sun altitude
Rises 05:44:35 0° 208° (SSW) 3,695 7.9 -13.3°
Reaches altitude 10° 05:50:07 10° 171° (S) 2,831 7.7 -12.4°
Maximum altitude 05:51:21 11° 160° (SSE) 2,813 7.9 -12.2°
Drops below altitude 10° 05:52:36 10° 150° (SSE) 2,871 8.1 -12.0°
Sets 05:58:26 0° 114° (ESE) 3,919 10.2 -11.0°
